Flag for Brazil Weather past 2 weeks in Joinville, Santa Catarina, Brazil

Now
61 °F

Sunny.


Feels Like: 61 °F
Forecast: 52 / 75 °F
Wind: 3 mph from Northeast

Location: Curitiba Aeroporto

Current Time: Jul 31, 2015 at 11:08:18 AM

Latest Report: Jul 31, 2015 at 10:00 AM


Visibility: 10 mi

Pressure: 30.27 "Hg

Humidity: 83%

Dew point: 55 °F

Location of JoinvilleLocation

Historic Weather in Joinville — Graph

°F

Joinville temperature yesterday

Maximum temperature yesterday: 73 °F (at 3:00 PM)
Minimum temperature yesterday: 45 °F (at 7:00 AM)
Average temperature yesterday: 58 °F

Past Weeks' High & Low Weather Summary

 TemperatureHumidityPressure
High75 °F (Jul 18, 3:00 PM)100% (Jul 16, 11:00 PM)30.36 "Hg (Jul 16, 11:00 PM)
Low41 °F (Jul 28, 7:00 AM)33% (Jul 28, 1:00 PM)29.98 "Hg (Jul 20, 10:00 PM)
Average58 °F82%30.21 "Hg
* Reported Jul 16 10:00 AM — Jul 31 10:00 AM, Joinville, Weather by CustomWeather, © 2015

Note: Actual official high and low records may vary slightly from our data, if they occured in-between our weather recording intervals... More about our weather records

Advertising

Joinville weather history for previous 24 hours

 ConditionsComfort  
Time TempWeatherWind HumidityBarometerVisibility
10:00 AM
Fri, Jul 31
61 °FSunny.3 mph83%30.27 "Hg10 mi
9:00 AM54 °FFog.2 mph94%30.24 "Hg2 mi
8:00 AM46 °FFog.1 mph93%N/A1 mi
7:00 AM43 °FFog.No wind100%N/A1 mi
6:00 AM43 °FFog.2 mph100%N/A1 mi
5:00 AM45 °FFog.2 mph100%30.21 "Hg2 mi
4:00 AM45 °FClear.3 mph100%30.21 "Hg10 mi
3:00 AM48 °FClear.No wind100%30.21 "Hg10 mi
2:00 AM48 °FClear.2 mph100%30.24 "Hg10 mi
1:00 AM50 °FClear.2 mph100%30.24 "Hg10 mi
12:00 AM52 °FClear.2 mph94%30.24 "Hg10 mi
11:00 PM
Thu, Jul 30
52 °FClear.3 mph94%30.24 "Hg10 mi
10:00 PM54 °FClear.3 mph88%30.24 "Hg10 mi
9:00 PM57 °FClear.2 mph82%30.24 "Hg10 mi
8:00 PM57 °FClear.3 mph82%30.24 "Hg10 mi
7:00 PM59 °FClear.6 mph77%30.21 "Hg10 mi
6:00 PM63 °FClear.6 mph64%30.21 "Hg10 mi
5:00 PM68 °FClear.8 mph53%30.21 "Hg10 mi
4:00 PM72 °FSunny.3 mph38%30.21 "Hg10 mi
3:00 PM73 °FSunny.3 mph36%30.21 "Hg10 mi
2:00 PM72 °FSunny.5 mph38%30.24 "Hg10 mi
1:00 PM70 °FSunny.5 mph43%30.27 "Hg10 mi
12:00 PM70 °FSunny.6 mph40%30.30 "Hg10 mi
11:00 AM68 °FClear.2 mph53%30.30 "Hg4 mi
Weather by CustomWeather, © 2015

See weather overviewHow to use our weather pages